Aikoumaru No.8 — JD3288 — position and weather

sailwx.info

Track history (hours):
 
Tides and Currents Weather Stations Pressure Air Temp Water Temp Dewpoint Dewpoint Depression Visibility Wind Speed Wind Dir Waves Ship Positions

Aikoumaru No.8

Last reported at 2014-Jul-25 13:31 UTC. Time now 2014-Jul-25 13:38 UTC.
Position N 34°59' E 139°22'.

Length 74 m; draft 4.5 m.

Type: Cargo ship. MMSI: 431003153.

Date/timePositionNaut miles runAvg speedWind from/ knotsBaromVisibWave heightAir tempDewpointWater temp
2014-Jul-25 13:31N 34°59' E 139°22'1111.7
2014-Jul-25 12:33N 35°03' E 139°35'1212.2
2014-Jul-25 11:34N 35°12' E 139°45'1212.2
2014-Jul-25 10:33N 35°24' E 139°43'1212.4
2014-Jul-25 09:33N 35°32' E 139°54'9 8.5
2014-Jul-25 08:33N 35°40' E 139°57'0 0.0
2014-Jul-25 07:31N 35°40' E 139°57'0 0.0
2014-Jul-25 06:31N 35°40' E 139°57'0 0.0
2014-Jul-25 05:28N 35°40' E 139°57'0 0.0
2014-Jul-25 04:28N 35°40' E 139°57'0 0.0
2014-Jul-25 03:31N 35°40' E 139°57'0 0.0
2014-Jul-25 02:31N 35°40' E 139°57'0 0.0
2014-Jul-25 01:31N 35°40' E 139°57'0 0.0
2014-Jul-25 00:22N 35°40' E 139°57'0 0.0
2014-Jul-24 23:31N 35°40' E 139°57'0 0.2
2014-Jul-24 22:34N 35°40' E 139°57'3 2.6
2014-Jul-24 21:29N 35°37' E 139°58'0 0.0
2014-Jul-24 20:29N 35°37' E 139°58'0 0.0
2014-Jul-24 19:29N 35°37' E 139°58'0 0.0
2014-Jul-24 18:29N 35°37' E 139°58'0 0.0
2014-Jul-24 17:29N 35°37' E 139°58'0 0.0
2014-Jul-24 16:29N 35°37' E 139°58'0 0.0
2014-Jul-24 15:32N 35°37' E 139°58'0 0.0
2014-Jul-24 14:32N 35°37' E 139°58'0 0.0
2014-Jul-24 13:29N 35°37' E 139°58'0 0.0
2014-Jul-24 12:29N 35°37' E 139°58'0 0.1
2014-Jul-24 11:32N 35°37' E 139°58'0 0.0
2014-Jul-24 10:32N 35°37' E 139°58'0 0.0
2014-Jul-24 09:32N 35°37' E 139°58'4 3.9
2014-Jul-24 08:33N 35°41' E 139°57'0 0.0
2014-Jul-24 07:30N 35°41' E 139°57'0 0.0
2014-Jul-24 06:33N 35°41' E 139°57'0 0.0
2014-Jul-24 05:33N 35°41' E 139°57'0 0.0
2014-Jul-24 04:30N 35°41' E 139°57'0 0.0
2014-Jul-24 03:30N 35°41' E 139°57'0 0.0
2014-Jul-24 02:33N 35°41' E 139°57'1 0.9
2014-Jul-24 01:32N 35°40' E 139°57'0 0.0
2014-Jul-24 00:32N 35°40' E 139°57'0 0.0
2014-Jul-23 23:32N 35°40' E 139°57'0 0.0
2014-Jul-23 22:33N 35°40' E 139°57'3 3.1
2014-Jul-23 21:32N 35°37' E 139°58'0 0.0
2014-Jul-23 20:32N 35°37' E 139°58'0 0.0
2014-Jul-23 19:29N 35°37' E 139°58'0 0.0
2014-Jul-23 18:32N 35°37' E 139°58'0 0.0
2014-Jul-23 17:32N 35°37' E 139°58'0 0.0
2014-Jul-23 16:29N 35°37' E 139°58'0 0.0
2014-Jul-23 15:29N 35°37' E 139°58'0 0.0
2014-Jul-23 14:29N 35°37' E 139°58'0 0.0
2014-Jul-23 13:23N 35°37' E 139°58'0 0.0
2014-Jul-23 12:32N 35°37' E 139°58'0 0.0
2014-Jul-23 11:29N 35°37' E 139°58'0 0.0
2014-Jul-23 10:32N 35°37' E 139°58'3 2.8
2014-Jul-23 09:33N 35°35' E 139°56'1211.7
2014-Jul-23 08:33N 35°25' E 139°48'1010.2
2014-Jul-23 07:33N 35°15' E 139°47'1111.3
2014-Jul-23 06:33N 35°05' E 139°42'1313.0
2014-Jul-23 05:31N 34°56' E 139°29'  
Track history (hours):
 
Tides and Currents Weather Stations Pressure Air Temp Water Temp Dewpoint Dewpoint Depression Visibility Wind Speed Wind Dir Waves Ship Positions

Aikoumaru No.8

Last reported at 2014-Jul-25 13:31 UTC. Time now 2014-Jul-25 13:38 UTC.
Position N 34°59' E 139°22'.

Length 74 m; draft 4.5 m.

Type: Cargo ship. MMSI: 431003153.

Date/timePositionNaut miles runAvg speedWind from/ knotsBaromVisibWave heightAir tempDewpointWater temp
2014-Jul-25 13:31N 34°59' E 139°22'1111.7
2014-Jul-25 12:33N 35°03' E 139°35'1212.2
2014-Jul-25 11:34N 35°12' E 139°45'1212.2
2014-Jul-25 10:33N 35°24' E 139°43'1212.4
2014-Jul-25 09:33N 35°32' E 139°54'9 8.5
2014-Jul-25 08:33N 35°40' E 139°57'0 0.0
2014-Jul-25 07:31N 35°40' E 139°57'0 0.0
2014-Jul-25 06:31N 35°40' E 139°57'0 0.0
2014-Jul-25 05:28N 35°40' E 139°57'0 0.0
2014-Jul-25 04:28N 35°40' E 139°57'0 0.0
2014-Jul-25 03:31N 35°40' E 139°57'0 0.0
2014-Jul-25 02:31N 35°40' E 139°57'0 0.0
2014-Jul-25 01:31N 35°40' E 139°57'0 0.0
2014-Jul-25 00:22N 35°40' E 139°57'0 0.0
2014-Jul-24 23:31N 35°40' E 139°57'0 0.2
2014-Jul-24 22:34N 35°40' E 139°57'3 2.6
2014-Jul-24 21:29N 35°37' E 139°58'0 0.0
2014-Jul-24 20:29N 35°37' E 139°58'0 0.0
2014-Jul-24 19:29N 35°37' E 139°58'0 0.0
2014-Jul-24 18:29N 35°37' E 139°58'0 0.0
2014-Jul-24 17:29N 35°37' E 139°58'0 0.0
2014-Jul-24 16:29N 35°37' E 139°58'0 0.0
2014-Jul-24 15:32N 35°37' E 139°58'0 0.0
2014-Jul-24 14:32N 35°37' E 139°58'0 0.0
2014-Jul-24 13:29N 35°37' E 139°58'0 0.0
2014-Jul-24 12:29N 35°37' E 139°58'0 0.1
2014-Jul-24 11:32N 35°37' E 139°58'0 0.0
2014-Jul-24 10:32N 35°37' E 139°58'0 0.0
2014-Jul-24 09:32N 35°37' E 139°58'4 3.9
2014-Jul-24 08:33N 35°41' E 139°57'0 0.0
2014-Jul-24 07:30N 35°41' E 139°57'0 0.0
2014-Jul-24 06:33N 35°41' E 139°57'0 0.0
2014-Jul-24 05:33N 35°41' E 139°57'0 0.0
2014-Jul-24 04:30N 35°41' E 139°57'0 0.0
2014-Jul-24 03:30N 35°41' E 139°57'0 0.0
2014-Jul-24 02:33N 35°41' E 139°57'1 0.9
2014-Jul-24 01:32N 35°40' E 139°57'0 0.0
2014-Jul-24 00:32N 35°40' E 139°57'0 0.0
2014-Jul-23 23:32N 35°40' E 139°57'0 0.0
2014-Jul-23 22:33N 35°40' E 139°57'3 3.1
2014-Jul-23 21:32N 35°37' E 139°58'0 0.0
2014-Jul-23 20:32N 35°37' E 139°58'0 0.0
2014-Jul-23 19:29N 35°37' E 139°58'0 0.0
2014-Jul-23 18:32N 35°37' E 139°58'0 0.0
2014-Jul-23 17:32N 35°37' E 139°58'0 0.0
2014-Jul-23 16:29N 35°37' E 139°58'0 0.0
2014-Jul-23 15:29N 35°37' E 139°58'0 0.0
2014-Jul-23 14:29N 35°37' E 139°58'0 0.0
2014-Jul-23 13:23N 35°37' E 139°58'0 0.0
2014-Jul-23 12:32N 35°37' E 139°58'0 0.0
2014-Jul-23 11:29N 35°37' E 139°58'0 0.0
2014-Jul-23 10:32N 35°37' E 139°58'3 2.8
2014-Jul-23 09:33N 35°35' E 139°56'1211.7
2014-Jul-23 08:33N 35°25' E 139°48'1010.2
2014-Jul-23 07:33N 35°15' E 139°47'1111.3
2014-Jul-23 06:33N 35°05' E 139°42'1313.0
2014-Jul-23 05:31N 34°56' E 139°29'  

Dump ship's entire track history